User: anonymous   Login
Location: S�tio Afonso Gruber
(26.1760°S, 49.5250°W)
Time: 17:41:50
(UTC+00:00)
Language:

CUTE-I - Orbit

View from above orbital plane
View from above orbital plane
View from above satellite
View from above satellite

Ground track
Ground track

The orbit data is extracted from the following two-line orbital elements,

1 27844U 03031E   22334.00396971  .00000235  00000-0  12462-3 0  9999
2 27844  98.6797 339.2099 0009573 349.0249  11.0718 14.22548128  7443
Epoch (UTC): 30 November 2022 00:05:42
Eccentricity: 0.0009573
inclination: 98.6797°
perigee height: 810 km
apogee height: 823 km
right ascension of ascending node: 339.2099°
argument of perigee: 349.0249°
revolutions per day: 14.22548128
mean anomaly at epoch: 11.0718°
orbit number at epoch: 744

The dashed part of the orbit path shows where the satellite is in the earth's shadow,  

DLR